sat.trackr.live / text

‹ back to catalog

STARLINK-33997

NORAD 63928 · 2025-098C

PAYLOAD ACTIVE UNKNOWN

§ Identity

Operator
Country
US
Launch date
2025-05-13
Launch site
AFWTR
Launch vehicle
Mass (kg)
RCS (m²)

Purposes: comms

External: N2YO · Heavens-Above · Gunter

§ Orbital elements

Epoch: 2026-05-25T02:29:31.413120Z

Period
96.11 min
Inclination
70.0007°
Eccentricity
0.0002864
Mean motion
14.98338227 rev/d
Perigee alt
570.0 km
Apogee alt
574.0 km
Semi-major
6,950.2 km
B*
2.4476e-4
RAAN
81.9823°
Arg perigee
266.5777°
Mean anomaly
93.5055°
Rev number
5,801

§ Raw data

STARLINK-339971 63928U 25098C   26145.10383580  .00002829  00000+0  24476-3 0  99942 63928  70.0007  81.9823 0002864 266.5777  93.5055 14.98338227 58013

JSON: /api/v1/satellites/63928 · /tle

For live sub-satellite position, see the globe view (requires WebGL).

§ Visibility from observer

Set your observer location to see the next 7 days of passes ≥ 10°. The values pass through the URL so the page stays shareable.

No JS? Fill the form by hand. The geolocation button needs JavaScript.